Weather Roundup
Issued by NWS

Home | Current Version | Previous Version | Text Only | Print | Product List | Glossary On
Versions: 1 2 3 4 5 6 7 8 9 10 11 12 13 14 15 16 17 18 19 20 21 22 23 24 25 26 27 28 29 30 31 32 33 34 35 36 37 38 39 40 41 42 43 44 45 46 47 48 49 50
000
NZUS93 KARX 111110
HRRWXR

CURRENT HOURLY OBSERVATIONS ACROSS
MUCH OF THE UPPER MISSISSIPPI VALLEY
NATIONAL WEATHER SERVICE LA CROSSE WI
500 AM CST MON DEC 11 2017


...SOUTHEAST MINNESOTA...


CITY           SKY/WX    TMP DP  RH WIND       PRES   REMARKS
ROCHESTER      CLOUDY    27  24  89 S10       29.78F WCI  17
ROCHESTER/MAYO CLOUDY    28  24  86 SE8       29.79F WCI  19
WINONA         CLOUDY    30  27  86 SE6       29.85F WCI  24
AUSTIN         CLOUDY    28  23  80 S5        29.78F WCI  23
ALBERT LEA     CLOUDY    30  25  80 SW5       29.77F WCI  25
DODGE CENTER   CLOUDY    28  25  86 S10       29.76F WCI  19
PRESTON        PTCLDY    26  22  85 S10       29.80F WCI  16
OWATONNA       NOT AVBL
FARIBAULT      CLOUDY    30  27  86 S7        29.76F WCI  23
$$

...ELSEWHERE IN MINNESOTA...


CITY           SKY/WX    TMP DP  RH WIND       PRES   REMARKS
MINNEAPOLIS    CLOUDY    28  26  92 S7        29.77F WCI  21
INTNL FALLS    LGT SNOW  19  16  88 CALM      29.67S VSB 3/4
DULUTH         LGT SNOW  19  18  95 S8        29.71F FOG     WCI   9
RED WING       CLOUDY    28  23  80 SE5       29.79F WCI  23
REDWOOD FALLS  CLOUDY    34  26  72 SW7       29.72F WCI  28
MANKATO        PTCLDY    29  27  92 S7        29.76F WCI  22
WORTHINGTON    CLOUDY    33  25  72 SW16      29.74F WCI  23
FAIRMONT       CLOUDY    32  26  78 SW7       29.76F WCI  26
$$

...SOUTHWEST WISCONSIN...


CITY           SKY/WX    TMP DP  RH WIND       PRES   REMARKS
LA CROSSE      CLOUDY    27  23  85 S13       29.87F WCI  16
PRAIRIE DU CHI CLOUDY    27  21  77 E6        29.90F WCI  21
BOSCOBEL       CLOUDY    27  22  81 CALM      29.91F
LONE ROCK      LGT SNOW  24  23  96 E3        29.93F VSB 1
PLATTEVILLE    MOCLDY    26  25  96 SE6       29.91F WCI  19
FORT MC COY    LGT SNOW  24  22  92 S5        29.88F WCI  18
CAMP DOUGLAS   LGT SNOW  24  22  92 S5        29.89F FOG     WCI  18
MAUSTON-NEW LI LGT SNOW  24  22  91 SE5       29.89F WCI  18
VIROQUA        CLOUDY    24  23  99 S8        29.86F WCI  14
WIS DELLS      LGT SNOW  23  20  89 S7        29.91F VSB 3/4 WCI  15
$$

...ELSEWHERE IN WISCONSIN...


CITY           SKY/WX    TMP DP  RH WIND       PRES   REMARKS
MILWAUKEE      CLOUDY    25  18  74 S6        29.98F WCI  18
MADISON        LGT SNOW  24  22  91 S7        29.94S VSB 1   WCI  16
GREEN BAY      CLOUDY    21  14  74 SE6       29.93F WCI  13
EAU CLAIRE     LGT SNOW  24  21  88 S9        29.81F FOG     WCI  14
BLACK RVR FLS  CLOUDY    24  23  95 S5        29.86F WCI  18
MEDFORD        LGT SNOW  19  16  89 S8        29.82R WCI   8
WAUSAU         LGT SNOW  19  17  92 S12       29.83F FOG     WCI   7
WIS RAPIDS     LGT SNOW  21  19  92 S8        29.89F FOG     WCI  11
MARSHFIELD     LGT SNOW  21  19  92 S8        29.83F FOG     WCI  11
RICE LAKE      LGT SNOW  22  21  96 CALM      29.80F
$$

...NORTHEAST IOWA...


CITY           SKY/WX    TMP DP  RH WIND       PRES   REMARKS
WATERLOO       CLOUDY    30  23  75 S8        29.84F WCI  22
DUBUQUE        CLOUDY    26  22  84 S7        29.91F WCI  18
DECORAH        CLOUDY    27  23  86 SE7       29.83F WCI  19
MASON CITY     CLOUDY    30  24  78 S5        29.81F WCI  25
CHARLES CITY   CLOUDY    28  25  86 S8        29.83F WCI  20
OELWEIN        CLOUDY    28  27  93 S10       29.86F WCI  19
$$

...ELSEWHERE IN IOWA...


CITY           SKY/WX    TMP DP  RH WIND       PRES   REMARKS
DES MOINES     CLOUDY    33  25  72 CALM      29.87F
IOWA CITY      CLOUDY    31  24  75 S3        29.94F
FORT DODGE     CLOUDY    34  24  67 SW6       29.83F WCI  29
MARSHALLTOWN   CLOUDY    34  25  69 S8        29.84F WCI  27
CEDAR RAPIDS   MOCLDY    30  24  78 S12       29.87F WCI  20
$$

...NORTHERN ILLINOIS...


CITY           SKY/WX    TMP DP  RH WIND       PRES   REMARKS
CHICAGO-OHARE  FLURRIES  27  20  75 S5        30.00R WCI  22
CHICAGO-MIDWAY FLURRIES  27  20  75 S6        30.03R WCI  20
MOLINE         PTCLDY    30  24  78 S5        29.94F WCI  25
ROCKFORD       CLOUDY    24  20  84 SE6       29.98F WCI  17
PEORIA         CLOUDY    29  24  82 S7        30.00F WCI  22
$$

NOTE: "FAIR" INDICATES FEW OR NO CLOUDS BELOW 12,000 FEET WITH NO
SIGNIFICANT WEATHER AND/OR OBSTRUCTIONS TO VISIBILITY. WIND
SPEEDS ARE IN MILES-PER-HOUR.




USA.gov is the U.S. government's official web portal to all federal, state and local government web resources and services.